Tacoma Narrows, WA
on Thursday, December 13, 2012

Thursday
Previous Day Next Day
Daily Summary
 ActualAverageRecord
Temperature
Mean Temperature °F °F  
Max Temperature 43°F 45°F 52°F (2001)
Min Temperature 37°F 37°F 26°F (2011)
Degree Days
Heating Degree Days 25    
Moisture
Dew Point 37°F   
Average Humidity 86    
Maximum Humidity 93    
Minimum Humidity 74    
Precipitation
Precipitation 0.14 in in in ()
Wind
Wind Speed 2 mph   
Max Wind Speed 8 mph   
Max Gust Speed mph   
Visibility 8 miles   
Events Fog , Rain   
Averages and records for this station are not official NWS values.
Key: T is trace of precipitation, MM is missing value
Source: NWS Daily Summary
Seasonal Weather Averages
Time(PST)TemperatureDew PointHumidity Pressure Visibility Wind DirectionWind SpeedGust SpeedPrecipitationEvents Conditions
12:53 AM 39.9°F 37.0°F 89% 30.03 in 10.0 miles Calm Calm - N/A   Overcast
1:12 AM 39.2°F 35.6°F 87% 30.02 in 7.0 miles Calm Calm - N/A   Overcast
1:18 AM 39.2°F 37.4°F 93% 30.02 in 1.8 miles Calm Calm - N/A   Overcast
1:40 AM 37.4°F 35.6°F 93% 30.03 in 0.5 miles Calm Calm - N/A Fog Fog
1:53 AM 37.9°F 36.0°F 93% 30.04 in 0.8 miles Calm Calm - N/A   Overcast
2:03 AM 39.2°F 35.6°F 87% 30.03 in 1.0 miles Calm Calm - N/A   Overcast
2:10 AM 39.2°F 37.4°F 93% 30.03 in 1.8 miles Calm Calm - N/A   Overcast
2:17 AM 39.2°F 37.4°F 93% 30.03 in 2.5 miles Calm Calm - N/A   Overcast
2:36 AM 39.2°F 37.4°F 93% 30.03 in 6.0 miles Calm Calm - N/A   Overcast
2:44 AM 41.0°F 39.2°F 93% 30.03 in 8.0 miles Calm Calm - N/A   Overcast
2:53 AM 41.0°F 39.0°F 93% 30.04 in 8.0 miles Calm Calm - N/A   Overcast
3:15 AM 41.0°F 39.2°F 93% 30.03 in 7.0 miles Calm Calm - N/A   Overcast
3:53 AM 41.0°F 39.0°F 93% 30.05 in 7.0 miles Calm Calm - N/A   Overcast
4:25 AM 41.0°F 39.2°F 93% 30.04 in 10.0 miles Calm Calm - N/A   Overcast
4:53 AM 41.0°F 37.9°F 89% 30.05 in 10.0 miles South 5.8 mph - N/A   Overcast
5:09 AM 39.2°F 37.4°F 93% 30.04 in 10.0 miles South 3.5 mph - N/A   Overcast
5:53 AM 39.9°F 37.0°F 89% 30.04 in 10.0 miles SE 3.5 mph - N/A   Overcast
6:04 AM 39.2°F 37.4°F 93% 30.03 in 10.0 miles SSE 4.6 mph - N/A   Overcast
6:51 AM 39.2°F 35.6°F 87% 30.03 in 10.0 miles South 5.8 mph - N/A   Overcast
6:53 AM 39.9°F 36.0°F 86% 30.04 in 10.0 miles South 4.6 mph - N/A   Overcast
7:06 AM 39.2°F 35.6°F 87% 30.03 in 10.0 miles South 6.9 mph - N/A   Overcast
7:53 AM 39.9°F 36.0°F 86% 30.04 in 10.0 miles South 5.8 mph - N/A   Overcast
8:53 AM 39.9°F 34.0°F 79% 30.03 in 10.0 miles SSE 3.5 mph - N/A   Overcast
9:53 AM 41.0°F 34.0°F 76% 30.01 in 10.0 miles Calm Calm - N/A   Overcast
10:53 AM 42.1°F 35.1°F 76% 30.00 in 10.0 miles SW 5.8 mph - N/A   Overcast
11:53 AM 42.1°F 35.1°F 76% 29.98 in 10.0 miles South 4.6 mph - N/A   Overcast
12:53 PM 43.0°F 35.1°F 74% 29.96 in 10.0 miles SSW 3.5 mph - N/A   Overcast
1:53 PM 43.0°F 36.0°F 76% 29.92 in 10.0 miles South 5.8 mph - N/A   Overcast
4:53 PM 42.8°F 35.6°F 76% 29.86 in 10.0 miles South 8.1 mph - N/A   Overcast
5:53 PM 43.0°F 35.1°F 74% 29.86 in 10.0 miles South 6.9 mph - 0.00 in Rain Light Rain
6:09 PM 42.8°F 35.6°F 76% 29.85 in 10.0 miles South 4.6 mph - 0.01 in Rain Light Rain
6:16 PM 42.8°F 35.6°F 76% 29.84 in 10.0 miles South 5.8 mph - 0.01 in Rain Light Rain
6:53 PM 42.1°F 37.0°F 82% 29.85 in 10.0 miles South 8.1 mph - 0.02 in Rain Light Rain
7:53 PM 41.0°F 37.0°F 86% 29.84 in 10.0 miles South 5.8 mph - 0.02 in Rain Light Rain
8:00 PM 41.0°F 37.4°F 87% 29.83 in 10.0 miles South 5.8 mph - 0.00 in Rain Light Rain
8:53 PM 41.0°F 37.9°F 89% 29.83 in 10.0 miles SSE 4.6 mph - 0.01 in Rain Light Rain
9:02 PM 41.0°F 37.4°F 87% 29.82 in 10.0 miles SSE 4.6 mph - 0.00 in Rain Light Rain
9:53 PM 41.0°F 37.9°F 89% 29.83 in 7.0 miles South 6.9 mph - 0.03 in Rain Light Rain
10:33 PM 41.0°F 37.4°F 87% 29.82 in 8.0 miles South 5.8 mph - 0.03 in Rain Light Rain
10:41 PM 41.0°F 37.4°F 87% 29.82 in 9.0 miles South 5.8 mph - 0.03 in Rain Light Rain
10:53 PM 41.0°F 37.9°F 89% 29.83 in 10.0 miles SSE 5.8 mph - 0.03 in Rain Light Rain
11:53 PM 39.9°F 37.9°F 93% 29.82 in 7.0 miles South 5.8 mph - 0.03 in Rain Light Rain
Moon Phase
Dec. 13 Dec. 20 Dec. 28 Jan. 04 Jan. 11
Sunrise:07:49 AM (PST) Moon Rise:08:01 AM (PST)12/13
Sunset:04:20 PM (PST) Moon Set:05:10 PM (PST)12/13

Copyright © 2014 The Weather Underground, Inc.